Mattson, Mississippi
Current Conditions -  °F | °C
As of 4:15 PM on Tuesday 21 Oct 2014 (Local Time) from KCKM Reporting Station
Clear Clear  
Wind Chill: 75°   Ceiling: Unl
Heat Index: 75°   Visibility: 10mi
Dew Point: 52°   Wind: 12mph
Humidity: 44%   Direction: 350°N
Pressure: 30.04"   Gusts: NA
Location:  34.1°N, 90.51°W
Report Text: KCKM 212115Z AUTO 35010KT 10SM CLR 24/11 A3004 RMK AO1
Loading
Personal Weather Stations






























Interactive Weather Map
Tropical Storm Tracking
New forecast layout! Learn more

10-Day Weather Forecast

Advertisements
Track Severe Weather on mobile